Weather History for YTEF - March, 2013

Change the Weather History Date:

Wednesday, March 27, 2013

  Actual Average Record
Temperature  
Mean Temperature 87 °F -  
Max Temperature 98 °F - - ()
Min Temperature 76 °F - - ()
Cooling Degree Days 22    
Growing Degree Days 37 (Base 50)    
Moisture  
Dew Point 52 °F    
Average Humidity 28    
Maximum Humidity 44    
Minimum Humidity 15    
Precipitation  
Precipitation 0.00 in - - ()
Sea Level Pressure  
Sea Level Pressure 29.78 in    
Wind  
Wind Speed 12 mph ()    
Max Wind Speed 26 mph    
Max Gust Speed 36 mph    
T = Trace of Precipitation, MM = Missing Value Source: Averaged Metar Reports

Daily Weather History Graph

Daily Weather History Graph

Search for Another Location

Airport or City:

Trip Planner

Search our weather history database for the weather conditions in past years. The results will help you decide how hot, cold, wet, or windy it might be!

Date:

Astronomy

Mar. 27, 2013 Rise Set
Actual Time 5:57 AM AWST 5:55 PM AWST
Civil Twilight 5:34 AM AWST 6:17 PM AWST
Nautical Twilight 5:08 AM AWST 6:43 PM AWST
Astronomical Twilight 4:43 AM AWST 7:09 PM AWST
Moon 5:43 PM AWST (3/27) 5:32 AM AWST (3/27)
Length of Visible Light 12h 43m
Length of Day
11h 58m
Full, 100% of the Moon is Illuminated
Mar 27
Full
Mar 27
Full
Apr 3
Last Quarter
Apr 10
New
Apr 18
First Quarter

Hourly Weather History & Observations

Time (AWST) Temp. Heat Index Dew Point Humidity Pressure Visibility Wind Dir Wind Speed Gust Speed Precip Events Conditions
12:00 AM 87 °F - 54 °F 23% 29.70 in - SW 6.9 mph - -  
12:00 AM 87.8 °F 86.1 °F 55.4 °F 33% 29.77 in - SW 6.9 mph - N/A   Unknown
1:00 AM 86.0 °F 84.2 °F 53.6 °F 33% 29.77 in - South 9.2 mph - N/A   Unknown
2:00 AM 81 °F - 54 °F 29% 29.72 in - SSE 8.1 mph - -  
2:00 AM 80.6 °F 80.3 °F 53.6 °F 39% 29.77 in - SSE 8.1 mph - N/A   Unknown
3:00 AM 82 °F - 54 °F 28% 29.72 in - South 9.2 mph - -  
3:00 AM 82.4 °F 81.4 °F 53.6 °F 37% 29.77 in - South 9.2 mph - N/A   Unknown
4:00 AM 80.6 °F 80.3 °F 53.6 °F 39% 29.77 in - South 12.7 mph - N/A   Unknown
5:00 AM 78 °F - 54 °F 32% 29.73 in - South 13.8 mph - -  
5:00 AM 78.8 °F - 53.6 °F 42% 29.77 in - South 13.8 mph - N/A   Unknown
6:00 AM 77 °F - 53 °F 32% 29.75 in - South 16.1 mph - -  
6:00 AM 77.0 °F - 53.6 °F 44% 29.80 in - South 16.1 mph - N/A   Unknown
7:00 AM 78.8 °F - 51.8 °F 39% 29.83 in - SSE 18.4 mph - N/A   Unknown
8:00 AM 82 °F - 51 °F 24% 29.78 in - SSE 19.6 mph - -  
8:00 AM 82.4 °F - 51.8 °F 35% 29.83 in - SSE 19.6 mph - N/A   Unknown
9:00 AM 85 °F - 51 °F 21% 29.78 in - SSE 20.7 mph - -  
9:00 AM 86.0 °F - 51.8 °F 31% 29.83 in - SSE 20.7 mph - N/A   Unknown
10:00 AM 87.8 °F - 51.8 °F 29% 29.83 in - SSE 18.4 mph - N/A   Unknown
11:00 AM 91 °F - 53 °F 18% 29.76 in - SSE 18.4 mph - -  
11:00 AM 91.4 °F 89.1 °F 53.6 °F 28% 29.83 in - SSE 18.4 mph - N/A   Unknown
12:00 PM 94 °F - 54 °F 16% 29.75 in - ESE 15.0 mph - -  
12:00 PM 93.2 °F 90.8 °F 53.6 °F 26% 29.80 in - ESE 15.0 mph - N/A   Unknown
1:00 PM 95.0 °F 92.7 °F 53.6 °F 25% 29.77 in - ESE 13.8 mph - N/A   Unknown
2:00 PM 95 °F - 53 °F 15% 29.70 in - SE 12.7 mph - -  
2:00 PM 95.0 °F 92.7 °F 53.6 °F 25% 29.77 in - SE 12.7 mph - N/A   Unknown
3:00 PM 96 °F - 53 °F 15% 29.69 in - ESE 11.5 mph - -  
3:00 PM 96.8 °F 94.4 °F 53.6 °F 23% 29.74 in - ESE 11.5 mph - N/A   Unknown
4:00 PM 95.0 °F - 51.8 °F 23% 29.74 in - South 12.7 mph - N/A   Unknown
5:00 PM 94 °F - 52 °F 15% 29.71 in - SE 16.1 mph - -  
5:00 PM 95.0 °F - 51.8 °F 23% 29.77 in - SE 16.1 mph - N/A   Unknown
6:00 PM 91 °F - 51 °F 17% 29.74 in - SSE 12.7 mph - -  
6:00 PM 91.4 °F - 51.8 °F 26% 29.80 in - SSE 12.7 mph - N/A   Unknown
7:00 PM 87.8 °F - 51.8 °F 29% 29.83 in - SSE 12.7 mph - N/A   Unknown
8:00 PM 86 °F - 51 °F 20% 29.78 in - SSE 19.6 mph - -  
8:00 PM 86.0 °F - 51.8 °F 31% 29.83 in - SSE 19.6 mph - N/A   Unknown
9:00 PM 83 °F - 51 °F 22% 29.81 in - SSE 20.7 mph - -  
9:00 PM 84.2 °F - 50.0 °F 30% 29.86 in - SSE 20.7 mph - N/A   Unknown
10:00 PM 82.4 °F - 50.0 °F 32% 29.86 in - SSE 25.3 mph - N/A   Unknown
11:00 PM 79 °F - 50 °F 26% 29.83 in - SSE 26.5 mph - -  
11:00 PM 78.8 °F - 50.0 °F 36% 29.89 in - SSE 26.5 mph - N/A   Unknown
11:23 PM 78.8 °F - 50.0 °F 36% 29.89 in - SSE 24.2 mph 35.7 mph N/A   Unknown